Location: K�benhavn
(55.6670°N, 12.5830°E)
Time: 07:07:23
(UTC+01:00)

Envisat - Visible Passes

Search period start: 29 October 2020 00:00
Search period end: 08 November 2020 00:00
Orbit: 764 x 766 km, 98.1° (Epoch: 28 October)

Date Brightness Start Highest point End Pass type
(mag) Time Alt. Az. Time Alt. Az. Time Alt. Az.
29 Oct 5.7 05:05:01 10° NE 05:08:51 21° E 05:12:40 10° SE visible
29 Oct 5.2 18:06:25 10° SSW 18:10:51 30° W 18:15:18 10° NNW visible
30 Oct 6.5 04:29:57 10° ENE 04:31:27 11° E 04:32:58 10° E visible
30 Oct 3.8 06:06:34 10° NNE 06:11:37 58° E 06:16:37 10° S visible
30 Oct 3.9 17:28:48 10° S 17:33:46 54° W 17:38:47 10° NNW visible
30 Oct 6.6 19:13:21 10° W 19:14:00 10° W 19:14:38 10° WNW visible
31 Oct 5.0 05:30:01 10° NNE 05:34:34 32° E 05:39:06 10° SSE visible
31 Oct 5.8 18:32:55 10° SW 18:36:35 20° W 18:40:15 10° NW visible
01 Nov 6.0 04:53:55 10° NE 04:57:19 18° E 05:00:42 10° SE visible
01 Nov 3.1 06:31:58 10° NNE 06:37:06 88° ESE 06:42:12 10° SSW visible
01 Nov 4.8 17:54:43 10° SSW 17:59:22 35° W 18:04:03 10° NNW visible
02 Nov 4.1 05:55:14 10° NNE 06:00:11 49° E 06:05:06 10° S visible
02 Nov 3.5 17:17:18 10° S 17:22:21 65° WSW 17:27:27 10° NNW visible
02 Nov 6.3 19:00:14 10° WSW 19:02:25 13° W 19:04:37 10° NW visible
03 Nov 5.3 05:18:46 10° NNE 05:23:05 27° E 05:27:21 10° SSE visible
03 Nov 5.6 18:21:02 10° SW 18:25:03 23° W 18:29:07 10° NW visible
04 Nov 6.2 04:42:58 10° NE 04:45:47 15° E 04:48:34 10° ESE visible
04 Nov 3.3 06:20:36 10° NNE 06:25:43 75° ESE 06:30:48 10° S visible
04 Nov 4.4 17:43:05 10° SSW 17:47:55 42° W 17:52:45 10° NNW visible
05 Nov 4.5 05:43:55 10° NNE 05:48:45 40° E 05:53:31 10° SSE visible
05 Nov 3.2 17:05:52 10° SSE 17:10:57 78° WSW 17:16:05 10° NNW visible
05 Nov 6.1 18:47:54 10° WSW 18:50:51 15° W 18:53:49 10° NW visible
06 Nov 5.6 05:07:36 10° NE 05:11:35 22° E 05:15:32 10° SE visible
06 Nov 3.0 06:46:03 10° NNE 06:51:09 73° WNW 06:56:13 10° SSW visible
06 Nov 5.2 18:09:13 10° SSW 18:13:34 28° W 18:17:56 10° NNW visible
07 Nov 6.3 04:32:15 10° ENE 04:34:12 12° E 04:36:10 10° ESE visible
07 Nov 3.6 06:09:14 10° NNE 06:14:18 62° ESE 06:19:21 10° S visible
07 Nov 4.0 17:31:32 10° S 17:36:28 51° W 17:41:27 10° NNW visible
